sat.trackr.live / text

‹ back to catalog

STARLINK-4330

NORAD 53080 · 2022-077AP

PAYLOAD ACTIVE UNKNOWN

§ Identity

Operator
Country
US
Launch date
2022-07-11
Launch site
AFWTR
Launch vehicle
Mass (kg)
RCS (m²)

Purposes: comms

External: N2YO · Heavens-Above · Gunter

§ Orbital elements

Epoch: 2026-09-19T22:07:20.747424Z

Period
93.91 min
Inclination
97.2848°
Eccentricity
0.0001312
Mean motion
15.33439987 rev/d
Perigee alt
464.7 km
Apogee alt
466.5 km
Semi-major
6,843.7 km
B*
2.2091e-5
RAAN
78.6533°
Arg perigee
94.2712°
Mean anomaly
265.8681°
Rev number
23,026

§ Raw data

STARLINK-43301 53080U 22077AP  26262.92176791  .00000638  00000+0  22091-4 0  99982 53080  97.2848  78.6533 0001312  94.2712 265.8681 15.33439987230261

JSON: /api/v1/satellites/53080 · /tle

For live sub-satellite position, see the globe view (requires WebGL).

§ Visibility from observer

Set your observer location to see the next 7 days of passes ≥ 10°. The values pass through the URL so the page stays shareable.

No JS? Fill the form by hand. The geolocation button needs JavaScript.